This demonstration page uses our WeatherBlox Daily Observations layout. Learn more.

Left ArrowRight Arrow

Hourly Observations for May 23, 2020

Temp ( °F °C ) Dew Point ( °F °C ) Humidity (%) Winds ( mph kmh ) Pressure ( in mb ) Visibility ( mi km ) Precip ( " mm )
12:53 am 00:53 Clear 79 26.1 56 13.3 45 45 SSE 8 13 29.65 1004 10 16 0.00 0.00
1:53 am 01:53 Clear 76 24.4 57 13.9 52 52 SE 9 15 29.62 1003 10 16 0.00 0.00
2:53 am 02:53 Clear 73 22.8 60 15.6 64 64 SSE 6 9 29.61 1003 10 16 0.00 0.00
3:53 am 03:53 Clear 71 21.7 60 15.6 68 68 SE 5 7 29.62 1003 10 16 0.00 0.00
4:53 am 04:53 Clear 64 17.8 50 10 60 60 NNE 6 9 29.63 1003 10 16 0.00 0.00
5:53 am 05:53 Clear 67 19.4 58 14.4 73 73 ESE 5 7 29.65 1004 10 16 0.00 0.00
6:53 am 06:53 Sunny 66 18.9 57 13.9 73 73 ESE 5 7 29.68 1005 10 16 0.00 0.00
7:53 am 07:53 Sunny 69 20.6 55 12.8 61 61 SE 7 11 29.70 1006 10 16 0.00 0.00
8:53 am 08:53 Sunny 74 23.3 57 13.9 56 56 SE 8 13 29.71 1006 10 16 0.00 0.00
9:53 am 09:53 Sunny 79 26.1 59 15 50 50 SW 6 9 29.72 1006 10 16 0.00 0.00
10:51 am 10:51 Mostly Sunny 86 30 50 10 29 29 N 8 13 29.63 1004 10 16 0.00 0.00
10:53 am 10:53 Mostly Sunny 86 30 51 10.6 30 30 N 8 13 29.68 1005 10 16 0.00 0.00
11:53 am 11:53 Sunny 90 32.2 42 5.6 19 19 WNW 6 9 29.68 1005 10 16 0.00 0.00
12:32 pm 12:32 Mostly Sunny 93 33.9 37 2.8 14 14 N 5 7 29.58 1002 10 16 0.00 0.00
12:53 pm 12:53 Mostly Sunny 94 34.4 39 3.9 15 15 VRB 5 7 29.65 1004 10 16 0.00 0.00
1:53 pm 13:53 Sunny 94 34.4 38 3.3 14 14 ENE 6 9 29.63 1003 10 16 0.00 0.00
2:53 pm 14:53 Sunny 96 35.6 42 5.6 15 15 SSE 14 22 29.60 1002 10 16 0.00 0.00
3:53 pm 15:53 Sunny 97 36.1 40 4.4 14 14 SW 13 20 29.57 1001 10 16 0.00 0.00
4:53 pm 16:53 Sunny 98 36.7 37 2.8 12 12 SSW 18 30 29.56 1001 10 16 0.00 0.00
5:53 pm 17:53 Sunny 94 34.4 48 8.9 21 21 SSE 26 43 29.54 1001 10 16 0.00 0.00
6:53 pm 18:53 Sunny 92 33.3 41 5 17 17 S 26 43 29.54 1000 10 16 0.00 0.00
7:53 pm 19:53 Sunny 86 30 46 7.8 25 25 S 23 37 29.55 1001 10 16 0.00 0.00
8:53 pm 20:53 Clear 82 27.8 55 12.8 40 40 S 23 37 29.61 1003 10 16 0.00 0.00
9:53 pm 21:53 Clear 78 25.6 59 15 52 52 SSE 25 41 29.63 1003 10 16 0.00 0.00
10:53 pm 22:53 Clear 77 25 57 13.9 50 50 SSE 24 39 29.65 1004 10 16 0.00 0.00
11:53 pm 23:53 Clear 75 23.9 54 12.2 48 48 SSE 16 26 29.66 1005 10 16 0.00 0.00

Powered by AerisWeather